EW2956 Weather Reports


Display with metric or nautical units.
time (UTC)temp
F
wind
direction
speed
MPH
gust
MPH
rain 1hr
in
rain 24hr
in
rain mn
in
humidity
%
barometer
mb
20260505003003 66 155 2.0 11.0 0.00 0.00 0.00 48 1008.5
20260505002002 66 143 2.0 9.0 0.00 0.00 0.00 48 1008.4
20260505001002 66 176 2.0 9.0 0.00 0.00 0.00 47 1008.3
20260505000002 67 173 4.0 14.0 0.00 0.00 0.00 47 1008.3
20260504235002 68 181 4.0 11.0 0.00 0.00 0.00 46 1008.3
20260504234003 68 167 4.0 11.0 0.00 0.00 0.00 45 1008.2
20260504233003 68 164 4.0 10.0 0.00 0.00 0.00 45 1008.1
20260504230002 70 168 6.0 16.0 0.00 0.00 0.00 43 1008.1
20260504225003 70 168 5.0 21.0 0.00 0.00 0.00 42 1008.0
20260504224004 71 176 6.0 18.0 0.00 0.00 0.00 41 1008.1
20260504221003 73 187 6.0 15.0 0.00 0.00 0.00 38 1008.0
20260504215002 74 185 4.0 14.0 0.00 0.00 0.00 36 1008.0
20260504214002 74 190 5.0 11.0 0.00 0.00 0.00 36 1008.0
20260504213002 75 192 4.0 14.0 0.00 0.00 0.00 36 1007.9
20260504212003 74 207 4.0 10.0 0.00 0.00 0.00 38 1008.1
20260504211002 74 207 4.0 11.0 0.00 0.00 0.00 37 1008.0
20260504210002 74 204 4.0 12.0 0.00 0.00 0.00 40 1008.1
20260504205002 75 198 5.0 12.0 0.00 0.00 0.00 36 1008.2
20260504203002 74 188 5.0 10.0 0.00 0.00 0.00 38 1008.3
20260504202003 74 216 4.0 14.0 0.00 0.00 0.00 37 1008.5
20260504201003 74 209 5.0 16.0 0.00 0.00 0.00 38 1008.7
20260504195003 72 199 5.0 15.0 0.00 0.00 0.00 38 1008.9
20260504194002 72 200 6.0 16.0 0.00 0.00 0.00 40 1009.0
20260504193002 72 202 5.0 15.0 0.00 0.00 0.00 37 1009.3
20260504192002 72 204 6.0 15.0 0.00 0.00 0.00 39 1009.3
20260504191003 72 204 5.0 12.0 0.00 0.00 0.00 36 1009.3
20260504190003 72 203 4.0 12.0 0.00 0.00 0.00 38 1009.5
20260504185003 72 217 5.0 10.0 0.00 0.00 0.00 36 1009.7
20260504184002 72 188 5.0 14.0 0.00 0.00 0.00 38 1009.7
20260504183002 72 223 5.0 11.0 0.00 0.00 0.00 39 1009.9
20260504182002 72 215 4.0 10.0 0.00 0.00 0.00 39 1010.0
20260504181003 72 206 4.0 11.0 0.00 0.00 0.00 43 1010.1
20260504180002 71 215 5.0 14.0 0.00 0.00 0.00 39 1010.2
20260504175003 71 223 5.0 15.0 0.00 0.00 0.00 40 1010.2
20260504174003 71 183 5.0 11.0 0.00 0.00 0.00 38 1010.4
20260504151003 65 201 4.0 14.0 0.00 0.00 0.00 44 1012.5
20260504082002 36 0 0.0 0.0 0.00 0.00 0.00 86 1013.5
20260504081003 37 0 0.0 0.0 0.00 0.00 0.00 86 1013.5
20260504050002 40 0 0.0 0.0 0.00 0.00 0.00 78 1013.7
20260504045003 40 0 0.0 0.0 0.00 0.00 0.00 77 1013.7
20260504043003 41 0 0.0 0.0 0.00 0.00 0.00 76 1013.7
20260504042003 42 0 0.0 0.0 0.00 0.00 0.00 76 1013.7
20260504040003 43 280 0.0 1.0 0.00 0.00 0.00 70 1013.3
20260504035003 43 0 0.0 0.0 0.00 0.00 0.00 67 1013.3
20260504034003 43 0 0.0 0.0 0.00 0.00 0.00 67 1013.2
20260504033003 44 0 0.0 0.0 0.00 0.00 0.00 66 1013.3
20260504032003 44 0 0.0 0.0 0.00 0.00 0.00 64 1013.2
20260504031003 45 0 0.0 0.0 0.00 0.00 0.00 63 1013.1
20260504030002 45 0 0.0 0.0 0.00 0.00 0.00 62 1013.0
20260504025002 46 0 0.0 0.0 0.00 0.00 0.00 61 1013.1
20260504024003 46 0 0.0 0.0 0.00 0.00 0.00 62 1013.1
20260504023003 47 279 0.0 1.0 0.00 0.00 0.00 60 1013.0
20260504022003 47 243 0.0 1.0 0.00 0.00 0.00 60 1013.2
20260504021002 47 0 0.0 0.0 0.00 0.00 0.00 57 1013.1
20260504020002 48 0 0.0 0.0 0.00 0.00 0.00 56 1013.1
20260504015003 49 241 0.0 1.0 0.00 0.00 0.00 56 1013.1
20260504014003 49 225 0.0 1.0 0.00 0.00 0.00 54 1013.1
20260504013003 49 0 0.0 0.0 0.00 0.00 0.00 53 1012.9
20260504012003 49 0 0.0 0.0 0.00 0.00 0.00 53 1012.7
20260504011003 50 212 0.0 1.0 0.00 0.00 0.00 52 1012.8
20260504010003 51 215 0.0 1.0 0.00 0.00 0.00 50 1012.8
20260504005004 52 218 0.0 1.0 0.00 0.00 0.00 48 1012.6
20260504004002 52 170 0.0 1.0 0.00 0.00 0.00 48 1012.6